Weather History for KOWB - January, 2012

Change the Weather History Date:

Tuesday, January 24, 2012

  Actual Average Record
Temperature  
Mean Temperature 36 °F -  
Max Temperature 43 °F 45 °F 76 °F (1943)
Min Temperature 28 °F 26 °F -13 °F (1963)
Degree Days  
Heating Degree Days 30    
Moisture  
Dew Point 29 °F    
Average Humidity 80    
Maximum Humidity 100    
Minimum Humidity 60    
Precipitation  
Precipitation 0.00 in - - ()
Sea Level Pressure  
Sea Level Pressure 30.26 in    
Wind  
Wind Speed 3 mph (North)    
Max Wind Speed 10 mph    
Max Gust Speed -    
Visibility 10 miles    
Events      
Averages and records for this station are not official NWS values.
T = Trace of Precipitation, MM = Missing Value Source: NWS Daily Summary

Daily Weather History Graph

Daily Weather History Graph

Search for Another Location

Airport or City:

Trip Planner

Search our weather history database for the weather conditions in past years. The results will help you decide how hot, cold, wet, or windy it might be!

Date:

Astronomy

Jan. 24, 2012 Rise Set
Actual Time 6:58 AM CST 5:02 PM CST
Civil Twilight 6:30 AM CST 5:31 PM CST
Nautical Twilight 5:58 AM CST 6:02 PM CST
Astronomical Twilight 5:27 AM CST 6:34 PM CST
Moon 7:30 AM CST (1/24) 6:51 PM CST (1/24)
Length of Visible Light 11h 00m
Length of Day
10h 04m
New Moon, 2% of the Moon is Illuminated
Jan 24
New Moon
Jan 30
First Quarter
Feb 7
Full
Feb 14
Last Quarter
Feb 21
New

Hourly Weather History & Observations

Time (CST) Temp. Windchill Dew Point Humidity Pressure Visibility Wind Dir Wind Speed Gust Speed Precip Events Conditions
12:56 AM 34.0 °F - 32.0 °F 92% 30.09 in 10.0 mi Calm Calm - N/A   Clear
1:56 AM 32.9 °F - 32.0 °F 96% 30.11 in 10.0 mi Calm Calm - N/A   Clear
2:56 AM 32.0 °F - 32.0 °F 100% 30.13 in 10.0 mi Calm Calm - N/A   Clear
3:56 AM 32.9 °F - 32.0 °F 96% 30.15 in 10.0 mi Calm Calm - N/A   Clear
4:56 AM 32.0 °F - 32.0 °F 100% 30.17 in 10.0 mi Calm Calm - N/A   Clear
5:56 AM 29.1 °F 25.4 °F 29.1 °F 100% 30.20 in 7.0 mi WSW 3.5 mph - N/A   Clear
6:56 AM 28.0 °F - 28.0 °F 100% 30.22 in 7.0 mi Calm Calm - N/A   Clear
7:56 AM 32.9 °F 27.5 °F 30.0 °F 89% 30.24 in 10.0 mi West 5.8 mph - N/A   Clear
8:56 AM 34.9 °F 27.1 °F 28.0 °F 76% 30.27 in 10.0 mi NW 10.4 mph - N/A   Clear
9:56 AM 36.9 °F 30.1 °F 28.0 °F 70% 30.29 in 10.0 mi NW 9.2 mph - N/A   Clear
10:56 AM 38.8 °F 33.8 °F 29.1 °F 68% 30.30 in 10.0 mi NW 6.9 mph - N/A   Clear
11:56 AM 41.0 °F 34.7 °F 29.1 °F 63% 30.28 in 10.0 mi NW 10.4 mph - N/A   Clear
12:56 PM 41.9 °F 37.5 °F 30.0 °F 63% 30.29 in 10.0 mi NW 6.9 mph - N/A   Clear
1:56 PM 41.9 °F 36.9 °F 29.1 °F 61% 30.28 in 10.0 mi NW 8.1 mph - N/A   Clear
2:56 PM 43.0 °F 39.5 °F 30.0 °F 60% 30.29 in 10.0 mi Variable 5.8 mph - N/A   Clear
3:56 PM 41.9 °F 38.2 °F 30.0 °F 63% 30.30 in 10.0 mi North 5.8 mph - N/A   Clear
4:56 PM 39.2 °F 35.9 °F 28.4 °F 65% 30.30 in 10.0 mi NNE 4.6 mph - N/A   Clear
5:56 PM 37.4 °F 33.8 °F 28.4 °F 70% 30.31 in 10.0 mi NNE 4.6 mph - N/A   Clear
6:56 PM 34.9 °F 29.0 °F 29.1 °F 79% 30.33 in 10.0 mi NE 6.9 mph - N/A   Clear
7:56 PM 34.0 °F 28.0 °F 28.0 °F 79% 30.35 in 10.0 mi NE 6.9 mph - N/A   Clear
8:56 PM 32.9 °F - 27.1 °F 79% 30.38 in 10.0 mi Calm Calm - N/A   Clear
9:56 PM 32.0 °F 24.2 °F 27.1 °F 82% 30.35 in 10.0 mi ENE 9.2 mph - N/A   Clear
10:56 PM 32.0 °F 24.2 °F 26.6 °F 80% 30.34 in 10.0 mi ENE 9.2 mph - N/A   Clear
11:56 PM 31.1 °F 24.5 °F 26.1 °F 82% 30.35 in 10.0 mi ENE 6.9 mph - N/A   Clear